Weather in Artik

Armenia     40˚37′11″N   43˚58′14″E
temp.,
°C
wind,
m/s
gust,
m/s
humid.,
%
clouds,
%
prec.,
mm/h
press.,
hPa
HPBL,
m
28 november, sat
sat2801:00−8˚ese23420 0.0 103521
04:00−8˚ese23440 0.0 103421
07:00−8˚ese23410 0.0 103421
10:00−6˚se335215 0.0 103367
13:00−3˚se24622 0.0 1030246
16:00−3˚se12676 0.0 102886
19:00−6˚ese22674 0.0 102921
22:00−5˚ese227126 0.0 103021
29 november, sun
sun2901:00−5˚ese237662 0.0 102921
04:00−5˚ese227452 0.0 102921
07:00−6˚ese227486 0.0 102821
10:00−3˚ese127077 0.0 102831
13:00−1˚nw116879 0.0 1024172
16:00−1˚n127271 0.0 102378
19:00−4˚e1172100 0.0 102421
22:00−4˚ese2273100 0.0 102521
30 november, mon
mon3001:00−5˚ese117299 0.0 102521
04:00−6˚se1173100 0.0 102521
07:00−6˚sse117694 0.0 102421
10:00−4˚s117481 0.0 102450
13:00−2˚ssw12774 0.0 1021266
16:00−3˚se12832 0.0 1020112
19:00−6˚se23770 0.0 102226
22:00−6˚se33884 0.0 102336
1 december, tue
tue101:00−6˚se339261 0.0 102340
04:00−6˚se239480 0.0 102358
07:00−6˚se239498 0.0 102369
10:00−5˚sse349199 0.0 1023187
13:00−3˚s348998 0.0 1021403
16:00−3˚s238885 0.1 1020239
19:00−6˚ese229035 0.0 102225
22:00−6˚se239028 0.0 102425
2 december, wed
wed201:00−5˚se238962 0.0 102431
04:00−6˚se239158 0.1 102425
07:00−6˚ese228929 0.0 102522
10:00−4˚se128822 0.0 102480
13:00−2˚s228763 0.0 1022309
16:00−1˚wnw118351 0.0 1020250
19:00−5˚ene128611 0.0 102221
22:00−5˚e11806 0.0 102421